This is the latest recevied weather packets stored in our database for station/object WX7FGZ-6. If no packets are shown the sender has not sent any weather packets the latest 10 day(s).
| Time | Temp. | Humidity | Pressure | Rain* | Wind** | Luminosity | Snow |
|---|---|---|---|---|---|---|---|
| 1778116653 | 3.89° C | 47% | 1022.6 hPa | 0 mm | - | - | - |
| 1778116353 | 4.44° C | 50% | 1022 hPa | 0 mm | - | - | - |
| 1778116053 | 4.44° C | 51% | 1022.1 hPa | 0 mm | - | - | - |
| 1778115753 | 4.44° C | 51% | 1022.1 hPa | 0 mm | - | - | - |
| 1778115453 | 5° C | 48% | 1022.2 hPa | 0 mm | - | - | - |
| 1778115153 | 5.56° C | 47% | 1022.1 hPa | 0 mm | - | - | - |
| 1778114853 | 6.11° C | 45% | 1022.2 hPa | 0 mm | - | - | - |
| 1778114553 | 6.67° C | 45% | 1022.2 hPa | 0 mm | - | - | - |
| 1778114253 | 6.11° C | 46% | 1022.2 hPa | 0 mm | - | - | - |
| 1778113954 | 6.11° C | 46% | 1022.1 hPa | 0 mm | - | - | - |
| 1778113653 | 6.11° C | 45% | 1022.2 hPa | 0 mm | - | - | - |
| 1778113353 | 6.11° C | 45% | 1022.1 hPa | 0 mm | - | - | - |
| 1778113053 | 6.11° C | 45% | 1022.2 hPa | 0 mm | - | - | - |
| 1778112753 | 6.11° C | 45% | 1022.1 hPa | 0 mm | - | - | - |
| 1778112453 | 5.56° C | 48% | 1022.1 hPa | 0.25 mm | - | - | - |
| 1778112153 | 5° C | 46% | 1021.6 hPa | 0.25 mm | - | - | - |
| 1778111853 | 5.56° C | 47% | 1021.5 hPa | 0.25 mm | - | - | - |
| 1778111554 | 5° C | 48% | 1021.5 hPa | 0.25 mm | - | - | - |
| 1778111254 | 5° C | 46% | 1021.7 hPa | 0.25 mm | - | - | - |
| 1778110953 | 5.56° C | 47% | 1022 hPa | 0.25 mm | - | - | - |
| 1778110654 | 5.56° C | 50% | 1021.9 hPa | 0.25 mm | - | - | - |
| 1778110353 | 6.11° C | 45% | 1022 hPa | 0.25 mm | - | - | - |
| 1778110053 | 6.11° C | 46% | 1022 hPa | 0.25 mm | - | - | - |
| 1778109753 | 5.56° C | 46% | 1021.9 hPa | 0.25 mm | - | - | - |
| 1778109453 | 5.56° C | 47% | 1022 hPa | 0.25 mm | - | - | - |
* Rain latest hour (hover to see other rain measurements)
** Current wind speed in m/s (hover to see current wind gust speed)